User: anonymous   Login
Location: Mason Neck State Park
(38.6428°N, 77.1981°W)
Time: 08:21:29
(UTC-05:00)
Language:

Cosmos 1400 Rocket - Orbit

View from above orbital plane
View from above orbital plane
View from above satellite
View from above satellite

Ground track
Ground track

The orbit data is extracted from the following two-line orbital elements,

1 13403U 82079B   14332.12230286  .00004322  00000-0  30458-3 0  7277
2 13403 081.1705 255.6478 0037454 105.2880 255.2488 15.04229066756455
Epoch (UTC): 28 November 2014 02:56:06
Eccentricity: 0.0037454
inclination: 81.1705°
perigee height: 528 km
apogee height: 580 km
right ascension of ascending node: 255.6478°
argument of perigee: 105.2880°
revolutions per day: 15.04229066
mean anomaly at epoch: 255.2488°
orbit number at epoch: 75645

The dashed part of the orbit path shows where the satellite is in the earth's shadow,  

DLR